Tracking 17784 objects as of 23-July-2016
HD Live streaming from Space Station
objects crossing your sky now

COSMOS 2251 DEB

Track COSMOS 2251 DEB now!
10-day predictions


NORAD ID: 38196
Int'l Code: 1993-036BSL
Perigee: 623.9 km
Apogee: 917.7 km
Inclination: 73.9 °
Period: 100.1 minutes
Semi major axis: 7141 km
RCS: 0.0033 m2 (small)
Launch date: June 16, 1993
Source: Commonwealth of Independent States (former USSR) (CIS)
Launch site: PLESETSK MISSILE AND SPACE COMPLEX (PKMTR)

Note: This is SATELLITE DEBRIS
Your satellite tracking list
Your tracking list is empty





NASA's NSSDC Master Catalog

Two Line Element Set (TLE):
1 38196U 93036BSL 16204.51699765  .00002784  00000-0  72119-3 0  9993
2 38196  73.8935 145.3852 0205654 322.6148  36.0840 14.38445449281042
Source of the keplerian elements: AFSPC

N2YO: 859